STARLINK-32141, 60290

Orbit data source: Space-Track

STARLINK-32141, 60290 is a payload satellite owned by SpaceX/Seattle (US) in LEO that was launched on Sun, 28 Jul 2024 UTC via an FALCON 9 launch vehicle from the Air Force Eastern Test Range (AFETR). Payloads include a variety of satellites, spacecraft, and rockets equipped with specific instruments for various scientific and technological missions. These include communications satellites like Starlink; space stations such as the ISS; scientific satellites like the Hubble; Earth observation satellites from companies like Planet Labs, Umbra, and HawkEye 360; GPS; miniature CubeSats for education and research; and military/defense satellites.

Loading next visibility...
STARLINK-32141 details
Identifier
60290, 2024-132N
Orbit
LEO
Last TLE update15 hours ago
Origin
Flag of USSpaceX/Seattle (US)
ManufacturerSpaceX/Seattle
MissionOperational spacecraft
Bus & MotorSTARLINK V2M, Unknown motor
Mass730 kg wet, ~700 kg dry
Launch date (UTC)
2024-07-28 (5 months ago)
Launch vehicle
FALCON 9
Launch site
Air Force Eastern Test Range (AFETR)
Object type
Payload
Rocket body
Debris
Shape & HBRUnknown
Radar Cross SectionLarge (>1 m²)

Expand to show TLE details & history

TLE from 15 hours ago
0 STARLINK-32141
1 60290U 24132N   24355.89311576  .00000759  00000-0  37751-4 0  9996
2 60290  53.1607 313.7850 0001203 106.2203 253.8930 15.30212792 23612
Epoch: 2024-12-20T21:26Z
Definitive object data (Epoch: 2024-12-20T21:26:05.201Z)
Latitude-0.00005°
Longitude-97.6888°
Altitude476.305 km
Speed7.629 km/s
True Right ascension20h 55m 08s
True Declination0° 00' 00"
Sunlit
Object was in daylight at TLE epoch
Visualization TLE readout
Latitude-39.00524°
Longitude-137.79564°
Altitude488.706 km
Speed7.62 km/s
Apparent Right ascension20h 55m 44s
Apparent Declination-47° 56' 35"
Sunlit
Object is in daylight
Visualization observer readout
Local Sidereal Time11:54:59
Azimuth119.263° SE
Elevation-57.236°
Doppler factor1
Orbital elements
Apogee altitude476.258 km
Perigee altitude474.609 km
Semi-major axis6,853.57 km
Eccentricity0.0001203
Inclination53.1607°
RAAN313.785°
Arg. of periapsis106.2203°
True anomaly253.87976°
Mean anomaly253.893°
Eccentric anomaly253.88638°
Mean motion3.82532 °/min
BSTAR0.000037751
Orbital period94.11 mins
Loading maneuver chart data...
Loading historical data...
Loading historical data...
Loading historical data...
Loading historical data...
Loading historical data...
Loading historical data...
Loading historical data...

STARLINK-32141 Visibility forecast

Observer location: undefined°, undefined

Span
Click to sort rows by Start time (UTC) header in descending order
Start Az.
Max El. time (UTC)
Max El. Az.
Max El.
End time (UTC)
End Az.
5 mins2024-12-22 00:17:06.884Z242.463° WSW2024-12-22 00:19:06.884Z289.823° WNW41.906°2024-12-22 00:22:06.884Z43.099° NE
4 mins2024-12-22 05:14:06.884Z343.575° N2024-12-22 05:16:06.884Z22.165° NNE18.284°2024-12-22 05:18:06.884Z61.52° ENE
5 mins2024-12-22 06:52:06.884Z307.063° NW2024-12-22 06:54:06.884Z285.668° WNW43.394°2024-12-22 06:57:06.884Z135.145° SSE
|